Home   Weather   Gooding   Past weeks
Flag for USA

Past Weather in Gooding, Idaho, USA — Yesterday and Last 2 Weeks

Now
83 °F

Sunny.


Feels Like: 81 °F
Forecast: 90 / 58 °F
Wind: 9 mph from Northwest

Location: Jerome County Airport

Current Time: Jul 15, 2019 at 3:00:36 pm

Latest Report: Jul 15, 2019 at 1:53 pm


Visibility: 10 mi

Pressure: 29.92 "Hg (26.45 "Hg at 1089m altitude)

Humidity: 31%

Dew Point: 49 °F

Location of GoodingLocation

Past Weather in Gooding — Graph

°F

Gooding Temperature Yesterday

Maximum temperature yesterday: 91 °F (at 3:53 pm)
Minimum temperature yesterday: 62 °F (at 5:53 am)
Average temperature yesterday: 77 °F

High & Low Weather Summary for the Past Weeks

 TemperatureHumidityPressure
High95 °F (Jul 13, 1:53 pm)81% (Jul 8, 7:53 am)30.10 "Hg (Jul 8, 7:53 am)
Low53 °F (Jul 4, 2:53 am)14% (Jul 6, 2:53 pm)29.75 "Hg (Jul 2, 6:53 pm)
Average72 °F44%29.90 "Hg
* Reported Jun 30 1:53 pm — Jul 15 1:53 pm, Gooding. Weather by CustomWeather, © 2019

Note: Actual official high and low records may vary slightly from our data, if they occured in-between our weather recording intervals... More about our weather records

Advertising

Gooding Weather History for the Previous 24 Hours

Scroll right to see more
 ConditionsComfort  
Time TempWeatherWind HumidityBarometerVisibility
1:53 pm
Mon, Jul 15
83 °FSunny.9 mph31%29.92 "Hg10 mi
12:53 pm82 °FSunny.13 mph32%29.93 "Hg10 mi
11:53 am78 °FSunny.10 mph37%29.95 "Hg10 mi
10:53 am73 °FSunny.7 mph43%29.96 "Hg10 mi
9:53 am71 °FSunny.7 mph45%29.97 "Hg10 mi
8:53 am66 °FSunny.5 mph59%29.98 "Hg10 mi
7:53 am66 °FSunny.7 mph52%29.95 "Hg10 mi
6:53 am64 °FClear.7 mph54%29.95 "Hg10 mi
5:53 am63 °FClear.7 mph56%29.94 "Hg10 mi
4:53 am64 °FClear.7 mph56%29.91 "Hg10 mi
3:53 am63 °FClear.6 mph60%29.92 "Hg10 mi
2:53 am63 °FClear.7 mph65%29.92 "Hg10 mi
1:53 am66 °FClear.10 mph54%29.91 "Hg10 mi
12:53 am69 °FClear.10 mph47%29.90 "Hg10 mi
11:53 pm
Sun, Jul 14
74 °FClear.7 mph46%29.88 "Hg10 mi
10:53 pm76 °FClear.3 mph42%29.88 "Hg10 mi
9:53 pm76 °FSunny.No wind43%29.87 "Hg10 mi
8:53 pm79 °FSunny.No wind45%29.86 "Hg10 mi
7:53 pm87 °FSunny.5 mph23%29.85 "Hg10 mi
6:53 pm84 °FSunny.5 mph33%29.86 "Hg10 mi
5:53 pm85 °FSunny.8 mph32%29.87 "Hg10 mi
4:53 pm91 °FSunny.9 mph25%29.86 "Hg10 mi
3:53 pm91 °FSunny.8 mph22%29.89 "Hg10 mi
Weather by CustomWeather, © 2019

See weather overview

LIVE PARTIAL LUNAR ECLIPSE – Watch the eclipse as it happens